Regional Weather Roundup
Issued by NWS State College, PA

Home | Current Version | Previous Version | Graphics & Text | Print | Product List | Glossary On
Versions: 1 2 3 4 5 6 7 8 9 10 11 12 13 14 15 16 17 18 19 20 21 22 23 24 25 26 27 28 29 30 31 32 33 34 35 36 37 38 39 40 41 42 43 44 45 46 47 48 49 50
000
ASUS41 KCTP 261910
RWRCTP

REGIONAL WEATHER ROUNDUP
NATIONAL WEATHER SERVICE STATE COLLEGE PA
300 PM EDT SUN APR 26 2015

Note: "fair" indicates few or no clouds below 12,000 feet with no
significant weather and/or obstructions to visibility.

* = STATION THAT DOES NOT REPORT PRECIPITATION /E.G. RAIN...SNOW...ETC/
    THUNDER OR FOG.

PAZ002>004-007>009-013>016-020>023-029>032-262000-
WESTERN PENNSYLVANIA

CITY           SKY/WX    TMP DP  RH WIND       PRES   REMARKS
ERIE           SUNNY     50  30  46 NW8       29.85S
MEADVILLE      PTSUNNY   51  26  37 N9G18     29.81R
FRANKLIN*      PTSUNNY   55  28  35 N10G24    29.79S
NEW CASTLE     MOCLDY    57  30  36 N12       29.80S
BEAVER COUNTY  SUNNY     55  28  35 N15G21    29.78S
BUTLER*        MOSUNNY   55  27  33 NE14      29.78F
PITTSBURGH INT MOSUNNY   57  27  31 N13G18    29.77S
PITTSBURGH     SUNNY     59  23  25 VRB7G17   29.75S
INDIANA*       MOSUNNY   55  28  35 VRB7G15   29.77F
LATROBE        MOSUNNY   55  28  35 N8        29.76S
WASHINGTON CO* SUNNY     57  30  35 NW10G17   29.78S
$$

PAZ004>006-010>012-017>019-024>028-033>037-041-042-045-046-049>053-262000-
CENTRAL PENNSYLVANIA

CITY           SKY/WX    TMP DP  RH WIND       PRES   REMARKS
BRADFORD       CLOUDY    49  25  39 NW7       29.76S
DUBOIS         MOSUNNY   57  25  29 N15G24    29.72F
CLEARFIELD     MOSUNNY   56  24  29 VRB6G21   29.72F
JOHNSTOWN      MOSUNNY   53  25  33 NW9G17    29.71S
ALTOONA        SUNNY     57  26  30 N10G20    29.71F
STATE COLLEGE  MOSUNNY   57  27  30 NE13G20   29.71F
WILLIAMSPORT   PTSUNNY   56  27  32 NW10      29.73R
SELINSGROVE    PTSUNNY   60  32  34 N15G30    29.72S
FT INDIANTOWN  MOSUNNY   60  29  30 NW8       29.69S
CAPITAL CITY   MOSUNNY   60  29  30 N8G17     29.71S
HARRISBURG     MOSUNNY   61  30  31 W9        29.69F
YORK           SUNNY     60  32  34 VRB7      29.70S
$$

PAZ038>040-043-044-047-048-054-055-060>062-067>071-262000-
EASTERN PENNSYLVANIA

CITY           SKY/WX    TMP DP  RH WIND       PRES   REMARKS
SCRANTON       CLOUDY    54  27  35 NW8       29.70F
MOUNT POCONO   PTSUNNY   52  26  36 N9G28     29.68S
ALLENTOWN      CLOUDY    59  30  33 CALM      29.67F
QUAKERTOWN*    PTCLDY    57  30  35 W6        29.68F
READING        PTSUNNY   59  28  30 CALM      29.67F
LANCASTER      MOSUNNY   59  31  34 N8        29.69F
COATESVILLE    PTCLDY    59  30  33 N5        29.68F
POTTSTOWN        N/A     60  31  33 CALM      29.69F
BLUE BELL      SUNNY     61  32  33 W6        29.67F
DOYLESTOWN     PTSUNNY   57  27  31 CALM      29.67F
WILLOW GROVE   NOT AVBL
NORTH PHILA    PTSUNNY   60  28  29 N9        29.69F
PHILADELPHIA   MOSUNNY   60  30  32 VRB5      29.68F
$$


USA.gov is the U.S. government's official web portal to all federal, state and local government web resources and services.